Weather History for EHBK - September, 2013

Change the Weather History Date:

Tuesday, September 3, 2013

  Actual Average Record
Temperature  
Mean Temperature 64 °F -  
Max Temperature 77 °F 65 °F 84 °F (2011)
Min Temperature 51 °F 49 °F 44 °F (2003)
Degree Days  
Heating Degree Days 1    
Growing Degree Days 14 (Base 50)    
Moisture  
Dew Point 57 °F    
Average Humidity 75    
Maximum Humidity 100    
Minimum Humidity 46    
Precipitation  
Precipitation 0.00 in 0.07 in - ()
Sea Level Pressure  
Sea Level Pressure 30.32 in    
Wind  
Wind Speed 5 mph ()    
Max Wind Speed 9 mph    
Max Gust Speed -    
Visibility 6.3 miles    
Events      
Averages and records for this station are not official NWS values.
T = Trace of Precipitation, MM = Missing Value Source: Averaged Metar Reports

Daily Weather History Graph

Daily Weather History Graph

Search for Another Location

Airport or City:

Trip Planner

Search our weather history database for the weather conditions in past years. The results will help you decide how hot, cold, wet, or windy it might be!

Date:

Astronomy

Sep. 03, 2013 Rise Set
Actual Time 6:53 AM CEST 8:17 PM CEST
Civil Twilight 6:19 AM CEST 8:51 PM CEST
Nautical Twilight 5:37 AM CEST 9:33 PM CEST
Astronomical Twilight 4:52 AM CEST 10:18 PM CEST
Moon 4:45 AM CEST (9/3) 6:59 PM CEST (9/3)
Length of Visible Light 14h 32m
Length of Day
13h 24m
Waning Crescent, 4% of the Moon is Illuminated
Sep 3
Waning Crescent
Sep 5
New
Sep 12
First Quarter
Sep 19
Full
Sep 27
Last Quarter

Hourly Weather History & Observations

Time (CEST) Temp. Dew Point Humidity Pressure Visibility Wind Dir Wind Speed Gust Speed Precip Events Conditions
12:25 AM 60.8 °F 55.4 °F 82% 30.33 in 6.2 mi WSW 3.5 mph - N/A   Unknown
12:55 AM 60.8 °F 55.4 °F 82% 30.33 in 6.2 mi WSW 3.5 mph - N/A   Unknown
1:25 AM 57.2 °F 53.6 °F 88% 30.33 in 6.2 mi WSW 3.5 mph - N/A   Unknown
1:55 AM 55.4 °F 53.6 °F 94% 30.33 in 6.2 mi SSW 5.8 mph - N/A   Unknown
2:00 AM 56 °F 54 °F 90% 30.34 in 8 mi SSW 4.5 mph - -   Partly Cloudy
2:25 AM 55.4 °F 53.6 °F 94% 30.33 in 6.2 mi SSW 3.5 mph - N/A   Unknown
2:55 AM 55.4 °F 53.6 °F 94% 30.30 in 6.2 mi SSW 3.5 mph - N/A   Unknown
3:25 AM 55.4 °F 53.6 °F 94% 30.30 in 6.2 mi SSW 8.1 mph - N/A   Unknown
3:55 AM 55.4 °F 53.6 °F 94% 30.30 in 6.2 mi SSW 6.9 mph - N/A   Unknown
4:25 AM 55.4 °F 53.6 °F 94% 30.30 in 6.2 mi SSW 6.9 mph - N/A   Unknown
4:55 AM 55.4 °F 53.6 °F 94% 30.30 in 5.6 mi SSW 5.8 mph - N/A   Unknown
5:00 AM 55 °F 54 °F 94% 30.32 in 6 mi SSW 6.7 mph - -   Mist
5:25 AM 55.4 °F 53.6 °F 94% 30.30 in 5.6 mi SSW 8.1 mph - N/A   Unknown
5:55 AM 55.4 °F 53.6 °F 94% 30.30 in 5.0 mi SSW 9.2 mph - N/A   Unknown
6:25 AM 53.6 °F 51.8 °F 94% 30.30 in 4.3 mi SSW 8.1 mph - N/A   Unknown
6:55 AM 53.6 °F 51.8 °F 94% 30.30 in 5.0 mi SSW 6.9 mph - N/A   Unknown
7:25 AM 51.8 °F 51.8 °F 100% 30.33 in 5.0 mi SSW 5.8 mph - N/A   Unknown
7:55 AM 55.4 °F 53.6 °F 94% 30.33 in 4.3 mi SSW 6.9 mph - N/A   Unknown
8:25 AM 57.2 °F 53.6 °F 88% 30.33 in 5.0 mi SSW 5.8 mph - N/A   Unknown
8:55 AM 59.0 °F 55.4 °F 88% 30.33 in 6.2 mi SSW 4.6 mph - N/A   Overcast
9:25 AM 60.8 °F 55.4 °F 82% 30.33 in 6.2 mi SSW 4.6 mph - N/A   Mostly Cloudy
9:55 AM 62.6 °F 55.4 °F 77% 30.36 in 5.6 mi SW 5.8 mph - N/A   Partly Cloudy
10:25 AM 64.4 °F 57.2 °F 77% 30.36 in 5.6 mi SSW 5.8 mph - N/A   Unknown
10:55 AM 66.2 °F 57.2 °F 73% 30.36 in 6.2 mi SSW 5.8 mph - N/A   Unknown
11:00 AM 67 °F 58 °F 65% 30.37 in 6 mi SSW 4.5 mph - -  
11:25 AM 68.0 °F 59.0 °F 73% 30.36 in 6.2 mi Variable 3.5 mph - N/A   Unknown
11:55 AM 68.0 °F 59.0 °F 73% 30.36 in 6.2 mi Variable 2.3 mph - N/A   Unknown
12:25 PM 69.8 °F 57.2 °F 64% 30.36 in 6.2 mi Variable 4.6 mph - N/A   Unknown
12:55 PM 71.6 °F 59.0 °F 64% 30.33 in 6.2 mi Variable 3.5 mph - N/A   Unknown
1:25 PM 73.4 °F 59.0 °F 61% 30.33 in 6.2 mi Variable 3.5 mph - N/A   Unknown
1:55 PM 73.4 °F 59.0 °F 61% 30.33 in 6.2 mi Variable 3.5 mph - N/A   Unknown
2:00 PM 73 °F 58 °F 49% 30.35 in 9 mi West 4.5 mph - -   Partly Cloudy
2:25 PM 73.4 °F 57.2 °F 57% 30.33 in 6.2 mi NNE 4.6 mph - N/A   Scattered Clouds
2:55 PM 75.2 °F 59.0 °F 57% 30.33 in 6.2 mi Variable 4.6 mph - N/A   Partly Cloudy
3:25 PM 75.2 °F 57.2 °F 53% 30.33 in 6.2 mi Variable 3.5 mph - N/A   Partly Cloudy
3:55 PM 75.2 °F 57.2 °F 53% 30.30 in 6.2 mi North 4.6 mph - N/A   Unknown
4:25 PM 75.2 °F 59.0 °F 57% 30.30 in 6.2 mi Variable 3.5 mph - N/A   Partly Cloudy
4:55 PM 75.2 °F 59.0 °F 57% 30.30 in 6.2 mi Variable 3.5 mph - N/A   Partly Cloudy
5:00 PM 76 °F 59 °F 46% 30.32 in 9 mi NNE 2.2 mph - -  
5:25 PM 75.2 °F 59.0 °F 57% 30.30 in 6.2 mi NE 5.8 mph - N/A   Unknown
5:55 PM 75.2 °F 59.0 °F 57% 30.30 in 6.2 mi NE 6.9 mph - N/A   Unknown
6:25 PM 75.2 °F 59.0 °F 57% 30.30 in 6.2 mi NE 8.1 mph - N/A   Partly Cloudy
6:55 PM 73.4 °F 59.0 °F 61% 30.27 in 6.2 mi ENE 8.1 mph - N/A   Partly Cloudy
7:25 PM 71.6 °F 59.0 °F 64% 30.27 in 6.2 mi NE 9.2 mph - N/A   Unknown
7:55 PM 71.6 °F 59.0 °F 64% 30.27 in 6.2 mi NE 6.9 mph - N/A   Unknown
8:00 PM 70 °F 59 °F 60% 30.31 in 14 mi NE 8.9 mph - -   Partly Cloudy
8:25 PM 69.8 °F 59.0 °F 68% 30.30 in 6.2 mi NE 6.9 mph - N/A   Unknown
8:55 PM 68.0 °F 59.0 °F 73% 30.30 in 6.2 mi ENE 8.1 mph - N/A   Unknown
9:25 PM 66.2 °F 59.0 °F 78% 30.30 in 6.2 mi ENE 8.1 mph - N/A   Unknown
9:55 PM 64.4 °F 59.0 °F 83% 30.30 in 6.2 mi ENE 8.1 mph - N/A   Unknown
10:25 PM 64.4 °F 57.2 °F 77% 30.30 in 6.2 mi ENE 8.1 mph - N/A   Unknown
10:55 PM 64.4 °F 57.2 °F 77% 30.30 in 6.2 mi East 6.9 mph - N/A   Unknown
11:25 PM 64.4 °F 57.2 °F 77% 30.30 in 6.2 mi East 5.8 mph - N/A   Unknown
11:55 PM 64.4 °F 57.2 °F 77% 30.30 in 6.2 mi East 5.8 mph - N/A   Unknown